CCA57 LSZH-LOWI

Flight info

Callsign CCA57
Flight time 0h 26m
Altitude FL150
Route DEGE5F DEGES N871 MADEB MADE1B
Aircraft A21N/M-SDE2E3FGHIJ1RWXY/LB1

Departure

Time 2026-05-07 14:49
Airport Zürich Airport (LSZH)

Arrival

Time 2026-05-07 15:16
Airport Innsbruck Airport (LOWI)
Time Latitude Longitude Altitude Speed Heading
2026-05-07 14:26 47.44626 8.56022 1402 ft 0 kts 245°
2026-05-07 14:41 47.44632 8.56041 1402 ft 4 kts 257°
2026-05-07 14:42 47.44632 8.56079 1402 ft 4 kts 270°
2026-05-07 14:42 47.44634 8.56112 1404 ft 4 kts 272°
2026-05-07 14:42 47.44627 8.56146 1412 ft 4 kts 314°
2026-05-07 14:42 47.44612 8.56162 1412 ft 0 kts 335°
2026-05-07 14:45 47.44613 8.56161 1402 ft 1 kts 335°
2026-05-07 14:46 47.44631 8.56150 1411 ft 5 kts 335°
2026-05-07 14:46 47.44671 8.56122 1410 ft 8 kts 335°
2026-05-07 14:46 47.44734 8.56080 1407 ft 12 kts 336°
2026-05-07 14:46 47.44820 8.56024 1407 ft 15 kts 335°
2026-05-07 14:47 47.44918 8.55956 1408 ft 17 kts 331°
2026-05-07 14:47 47.44955 8.55789 1409 ft 18 kts 273°
2026-05-07 14:47 47.44862 8.55737 1407 ft 20 kts 154°
2026-05-07 14:47 47.44731 8.55829 1408 ft 22 kts 156°
2026-05-07 14:48 47.44646 8.55841 1412 ft 11 kts 216°
2026-05-07 14:48 47.44596 8.55742 1406 ft 13 kts 249°
2026-05-07 14:48 47.44627 8.55621 1407 ft 15 kts 328°
2026-05-07 14:48 47.44841 8.55470 1405 ft 67 kts 336°
2026-05-07 14:49 47.45456 8.55044 1412 ft 126 kts 335°
2026-05-07 14:49 47.46371 8.54407 1405 ft 166 kts 333°
2026-05-07 14:49 47.47413 8.53705 1912 ft 166 kts 335°
2026-05-07 14:49 47.48475 8.52949 2450 ft 174 kts 333°
2026-05-07 14:50 47.49569 8.52146 3072 ft 176 kts 332°
2026-05-07 14:50 47.50680 8.51342 3714 ft 180 kts 333°
2026-05-07 14:50 47.51829 8.50519 4512 ft 187 kts 333°
2026-05-07 14:50 47.52940 8.49438 5195 ft 200 kts 310°
2026-05-07 14:51 47.53623 8.47572 5754 ft 219 kts 288°
2026-05-07 14:51 47.53900 8.45319 6505 ft 227 kts 266°
2026-05-07 14:51 47.53429 8.43084 7328 ft 232 kts 244°
2026-05-07 14:51 47.52672 8.40960 8238 ft 234 kts 243°
2026-05-07 14:52 47.51914 8.38827 9167 ft 236 kts 242°
2026-05-07 14:52 47.50835 8.37017 10012 ft 242 kts 212°
2026-05-07 14:52 47.49220 8.36327 10770 ft 249 kts 183°
2026-05-07 14:52 47.47504 8.36866 11565 ft 258 kts 156°
2026-05-07 14:53 47.46123 8.38593 12335 ft 268 kts 127°
2026-05-07 14:53 47.45453 8.41174 13096 ft 277 kts 97°
2026-05-07 14:53 47.45434 8.44044 13841 ft 286 kts 89°
2026-05-07 14:53 47.45520 8.47070 14182 ft 307 kts 89°
2026-05-07 14:54 47.45584 8.50316 14483 ft 328 kts 90°
2026-05-07 14:54 47.45620 8.53796 14781 ft 349 kts 89°
2026-05-07 14:54 47.45743 8.57479 15036 ft 372 kts 88°
2026-05-07 14:54 47.45891 8.61426 15094 ft 400 kts 88°
2026-05-07 14:55 47.46047 8.65645 15077 ft 422 kts 88°
2026-05-07 14:55 47.46213 8.70039 15056 ft 433 kts 88°
2026-05-07 14:55 47.46371 8.74476 15043 ft 434 kts 88°
2026-05-07 14:55 47.46531 8.78918 15033 ft 433 kts 87°
2026-05-07 14:56 47.46480 8.83328 15021 ft 432 kts 98°
2026-05-07 14:56 47.45916 8.87682 15030 ft 431 kts 103°
2026-05-07 14:56 47.45267 8.91992 15028 ft 431 kts 103°
2026-05-07 14:56 47.44631 8.96311 15032 ft 432 kts 103°
2026-05-07 14:57 47.44008 9.00641 15030 ft 431 kts 103°
2026-05-07 14:57 47.43394 9.04965 15026 ft 432 kts 103°
2026-05-07 14:57 47.42770 9.09299 15036 ft 431 kts 103°
2026-05-07 14:57 47.42140 9.13613 15042 ft 432 kts 103°
2026-05-07 14:58 47.41520 9.17933 15041 ft 432 kts 103°
2026-05-07 14:58 47.40911 9.22273 15031 ft 435 kts 102°
2026-05-07 14:58 47.40728 9.26706 15043 ft 435 kts 85°
2026-05-07 14:58 47.41127 9.31116 15072 ft 435 kts 84°
2026-05-07 14:59 47.41200 9.35586 15077 ft 435 kts 91°
2026-05-07 14:59 47.41124 9.40044 15048 ft 434 kts 92°
2026-05-07 14:59 47.41032 9.44493 15072 ft 436 kts 92°
2026-05-07 14:59 47.40962 9.48927 15085 ft 435 kts 91°
2026-05-07 15:00 47.40912 9.53382 15076 ft 434 kts 91°
2026-05-07 15:00 47.40885 9.57829 15098 ft 434 kts 91°
2026-05-07 15:00 47.40844 9.62286 15087 ft 434 kts 91°
2026-05-07 15:00 47.40620 9.66719 15046 ft 434 kts 99°
2026-05-07 15:01 47.40054 9.71080 15045 ft 433 kts 102°
2026-05-07 15:01 47.39472 9.75439 15047 ft 433 kts 102°
2026-05-07 15:01 47.38897 9.79786 15057 ft 433 kts 102°
2026-05-07 15:01 47.38320 9.84131 15061 ft 434 kts 102°
2026-05-07 15:02 47.37743 9.88482 15083 ft 433 kts 102°
2026-05-07 15:02 47.37168 9.92843 15072 ft 433 kts 101°
2026-05-07 15:02 47.36593 9.97196 15071 ft 432 kts 102°
2026-05-07 15:02 47.36021 10.01531 15067 ft 431 kts 101°
2026-05-07 15:03 47.35459 10.05854 15077 ft 432 kts 101°
2026-05-07 15:03 47.34898 10.10188 15070 ft 430 kts 101°
2026-05-07 15:03 47.34326 10.14469 14847 ft 429 kts 102°
2026-05-07 15:03 47.33748 10.18794 14535 ft 429 kts 102°
2026-05-07 15:04 47.33185 10.23072 14195 ft 427 kts 101°
2026-05-07 15:04 47.32609 10.27342 13877 ft 423 kts 102°
2026-05-07 15:04 47.32032 10.31524 13529 ft 423 kts 102°
2026-05-07 15:04 47.31438 10.35790 13156 ft 419 kts 102°
2026-05-07 15:05 47.30852 10.39984 12979 ft 418 kts 102°
2026-05-07 15:05 47.30282 10.44184 12973 ft 420 kts 102°
2026-05-07 15:05 47.29710 10.48395 13015 ft 420 kts 102°
2026-05-07 15:05 47.29138 10.52591 13027 ft 419 kts 102°
2026-05-07 15:06 47.28647 10.56818 13013 ft 420 kts 95°
2026-05-07 15:06 47.28679 10.61106 13020 ft 420 kts 86°
2026-05-07 15:06 47.28893 10.65378 13035 ft 420 kts 85°
2026-05-07 15:06 47.29120 10.69660 12976 ft 419 kts 85°
2026-05-07 15:07 47.29351 10.74017 11438 ft 441 kts 85°
2026-05-07 15:07 47.29581 10.78517 11117 ft 436 kts 86°
2026-05-07 15:07 47.29792 10.82834 11184 ft 413 kts 85°
2026-05-07 15:07 47.30019 10.86927 11054 ft 392 kts 85°
2026-05-07 15:08 47.30228 10.90826 10754 ft 371 kts 85°
2026-05-07 15:08 47.30414 10.94488 10413 ft 352 kts 86°
2026-05-07 15:08 47.30594 10.98011 9971 ft 339 kts 85°
2026-05-07 15:08 47.30767 11.01438 9307 ft 333 kts 85°
2026-05-07 15:09 47.30916 11.04798 8617 ft 328 kts 86°
2026-05-07 15:09 47.30949 11.08085 8176 ft 315 kts 99°
2026-05-07 15:09 47.30427 11.11125 7865 ft 299 kts 114°
2026-05-07 15:09 47.29295 11.13576 7598 ft 287 kts 139°
2026-05-07 15:10 47.27706 11.15094 7388 ft 262 kts 158°
2026-05-07 15:10 47.26023 11.15609 7209 ft 236 kts 179°
2026-05-07 15:10 47.24524 11.15057 6994 ft 217 kts 208°
2026-05-07 15:10 47.23751 11.13505 7701 ft 161 kts 262°
2026-05-07 15:11 47.23852 11.12294 8469 ft 138 kts 291°
2026-05-07 15:11 47.24574 11.11355 7775 ft 150 kts 342°
2026-05-07 15:11 47.25656 11.11011 6705 ft 173 kts 352°
2026-05-07 15:11 47.26836 11.10827 5784 ft 175 kts 358°
2026-05-07 15:12 47.28059 11.10958 4725 ft 179 kts 14°
2026-05-07 15:12 47.29117 11.11898 3666 ft 187 kts 52°
2026-05-07 15:12 47.29145 11.13722 3128 ft 179 kts 114°
2026-05-07 15:12 47.28457 11.15164 2806 ft 163 kts 123°
2026-05-07 15:13 47.27961 11.16500 2601 ft 142 kts 111°
2026-05-07 15:13 47.27571 11.17833 2571 ft 142 kts 112°
2026-05-07 15:13 47.27177 11.19152 2548 ft 142 kts 112°
2026-05-07 15:13 47.26814 11.20498 2622 ft 142 kts 109°
2026-05-07 15:14 47.26400 11.21812 2728 ft 142 kts 117°
2026-05-07 15:14 47.25993 11.23139 2896 ft 143 kts 108°
2026-05-07 15:14 47.25773 11.24544 2920 ft 141 kts 96°
2026-05-07 15:14 47.25714 11.25974 2803 ft 140 kts 94°
2026-05-07 15:15 47.25640 11.27385 2682 ft 138 kts 88°
2026-05-07 15:15 47.25634 11.28781 2557 ft 136 kts 91°
2026-05-07 15:15 47.25644 11.30160 2348 ft 133 kts 86°
2026-05-07 15:15 47.25711 11.31491 2170 ft 129 kts 81°
2026-05-07 15:16 47.25849 11.32792 2016 ft 129 kts 81°
2026-05-07 15:16 47.25985 11.34054 1906 ft 105 kts 79°
2026-05-07 15:16 47.26021 11.34358 1913 ft 0 kts 80°
2026-05-07 15:16 47.26029 11.34432 1913 ft 19 kts 82°
2026-05-07 15:17 47.26038 11.34526 1907 ft 0 kts 83°
2026-05-07 15:17 47.26041 11.34557 1904 ft 13 kts 83°
2026-05-07 15:17 47.26011 11.34802 1912 ft 31 kts 122°
2026-05-07 15:17 47.25898 11.35061 1903 ft 9 kts 118°
2026-05-07 15:18 47.25879 11.35153 1898 ft 8 kts 143°
2026-05-07 15:18 47.25848 11.35165 1908 ft 4 kts 169°
2026-05-07 15:18 47.25845 11.35165 1912 ft 0 kts 169°
2026-05-07 15:19 47.25835 11.35168 1901 ft 0 kts 171°